Location: *
(41.7492°S, 135.4150°W)
Time: 04:05:23
(UTC+00:00)

TIGRISAT - Pass Details

Date: 08 July 2022
Orbit: 603 x 686 km, 97.7° (Epoch: 08 August)

Event Time Altitude Azimuth Distance (km) Brightness Sun altitude
Rises 14:02:20 0° 146° (SE) 3,079 ? -26.5°
Reaches altitude 10° 14:06:08 10° 114° (ESE) 2,137 ? -25.8°
Maximum altitude 14:07:55 12° 92° (E) 1,990 ? -25.4°
Drops below altitude 10° 14:09:40 10° 69° (ENE) 2,109 ? -25.1°
Sets 14:13:21 0° 38° (NE) 2,989 ? -24.4°
